sat.trackr.live / text

‹ back to catalog

STARLINK-4524

NORAD 53396 · 2022-097J

PAYLOAD ACTIVE UNKNOWN

§ Identity

Operator
Country
US
Launch date
2022-08-10
Launch site
AFETR
Launch vehicle
Mass (kg)
RCS (m²)

Purposes: comms

External: N2YO · Heavens-Above · Gunter

§ Orbital elements

Epoch: 2026-05-25T03:03:50.223168Z

Period
95.44 min
Inclination
53.2151°
Eccentricity
0.0001075
Mean motion
15.08844150 rev/d
Perigee alt
539.0 km
Apogee alt
540.5 km
Semi-major
6,917.9 km
B*
8.6665e-5
RAAN
140.9771°
Arg perigee
80.6412°
Mean anomaly
279.4701°
Rev number
21,005

§ Raw data

STARLINK-45241 53396U 22097J   26145.12766462  .00001092  00000+0  86665-4 0  99942 53396  53.2151 140.9771 0001075  80.6412 279.4701 15.08844150210052

JSON: /api/v1/satellites/53396 · /tle

For live sub-satellite position, see the globe view (requires WebGL).

§ Visibility from observer

Set your observer location to see the next 7 days of passes ≥ 10°. The values pass through the URL so the page stays shareable.

No JS? Fill the form by hand. The geolocation button needs JavaScript.